Kokomo, IN

10:29 PM EDT on May 20, 2018 (GMT -0400)
Kokomo Municipal

Weather History for KOKK - August, 2013

Change the Weather History Date:

Thursday, August 22, 2013

  Actual Average (WUND) Record (WUND)
Temperature  
Mean Temperature 73 °F -  
Max Temperature 80 °F - - (-1)
Min Temperature 66 °F - - (-1)
Cooling Degree Days 8    
Growing Degree Days 23 (Base 50)    
Moisture  
Dew Point 66 °F    
Average Humidity 80    
Maximum Humidity 94    
Minimum Humidity 65    
Precipitation  
Precipitation 0.05 in - - ()
Sea Level Pressure  
Sea Level Pressure 30.08 in    
Wind  
Wind Speed 6 mph (WNW)    
Max Wind Speed 15 mph    
Max Gust Speed 21 mph    
Visibility 10 miles    
Events Thunderstorm    
Averages and records for this station are not official NWS values.
T = Trace of Precipitation, MM = Missing Value Source: NWS Daily Summary

Daily Weather History Graph

Daily Weather History Graph

Search for Another Location

Airport or City:

Astronomy

Aug. 22, 2013 Rise Set
Actual Time 6:02 AM CDT 7:31 PM CDT
Civil Twilight 5:33 AM CDT 8:00 PM CDT
Nautical Twilight 4:58 AM CDT 8:34 PM CDT
Astronomical Twilight 4:22 AM CDT 9:10 PM CDT
Moon 8:14 PM CDT (8/22) 7:50 AM CDT (8/22)
Length of Visible Light 14h 26m
Length of Day
13h 29m
Waning Gibbous, 96% of the Moon is Illuminated
Aug 22
Waning Gibbous
Aug 28
Last Quarter
Sep 5
New
Sep 12
First Quarter
Sep 19
Full

Hourly Weather History & Observations

Time (CDT) Temp. Heat Index Dew Point Humidity Pressure Visibility Wind Dir Wind Speed Gust Speed Precip Events Conditions
12:15 AM 69.8 °F - 64.4 °F 83% 30.07 in 10.0 mi SW 5.8 mph - N/A   Clear
12:35 AM 69.8 °F - 62.6 °F 78% 30.07 in 10.0 mi SSW 4.6 mph - N/A   Clear
12:55 AM 69.8 °F - 64.4 °F 83% 30.07 in 10.0 mi SW 4.6 mph - N/A   Clear
1:15 AM 71.6 °F - 64.4 °F 78% 30.07 in 10.0 mi WSW 4.6 mph - N/A   Clear
1:35 AM 71.6 °F - 64.4 °F 78% 30.07 in 10.0 mi WSW 5.8 mph - N/A   Scattered Clouds
1:55 AM 71.6 °F - 64.4 °F 78% 30.07 in 10.0 mi West 4.6 mph - N/A   Scattered Clouds
2:15 AM 71.6 °F - 64.4 °F 78% 30.08 in 10.0 mi West 4.6 mph - N/A   Mostly Cloudy
2:35 AM 71.6 °F - 64.4 °F 78% 30.08 in 10.0 mi SW 4.6 mph - N/A   Overcast
2:55 AM 71.6 °F - 64.4 °F 78% 30.08 in 10.0 mi WSW 5.8 mph - N/A   Mostly Cloudy
3:15 AM 71.6 °F - 64.4 °F 78% 30.08 in 10.0 mi SW 5.8 mph - N/A   Mostly Cloudy
3:35 AM 71.6 °F - 64.4 °F 78% 30.09 in 10.0 mi West 5.8 mph - N/A   Overcast
3:55 AM 71.6 °F - 64.4 °F 78% 30.09 in 10.0 mi North 8.1 mph - N/A   Overcast
4:15 AM 71.6 °F - 66.2 °F 83% 30.09 in 9.0 mi Calm Calm - N/A Thunderstorm Thunderstorm
4:35 AM 69.8 °F - 66.2 °F 88% 30.08 in 7.0 mi SSW 5.8 mph - N/A   Overcast
4:55 AM 69.8 °F - 66.2 °F 88% 30.06 in 7.0 mi Calm Calm - N/A   Scattered Clouds
5:15 AM 71.6 °F - 66.2 °F 83% 30.05 in 9.0 mi SSW 6.9 mph - N/A   Clear
5:35 AM 69.8 °F - 64.4 °F 83% 30.06 in 10.0 mi WSW 8.1 mph - N/A   Partly Cloudy
5:55 AM 69.8 °F - 64.4 °F 83% 30.05 in 9.0 mi SW 10.4 mph - N/A   Partly Cloudy
6:15 AM 71.6 °F - 64.4 °F 78% 30.06 in 9.0 mi WSW 10.4 mph - N/A   Clear
6:35 AM 71.6 °F - 64.4 °F 78% 30.06 in 10.0 mi WSW 10.4 mph - N/A   Clear
6:55 AM 71.6 °F - 64.4 °F 78% 30.06 in 10.0 mi West 9.2 mph - N/A   Clear
7:15 AM 71.6 °F - 64.4 °F 78% 30.07 in 10.0 mi WSW 8.1 mph - N/A   Clear
7:35 AM 73.4 °F - 64.4 °F 73% 30.07 in 10.0 mi West 5.8 mph - N/A   Clear
7:55 AM 73.4 °F - 64.4 °F 73% 30.08 in 10.0 mi West 6.9 mph - N/A   Clear
8:15 AM 73.4 °F - 64.4 °F 73% 30.09 in 10.0 mi West 6.9 mph - N/A   Clear
8:35 AM 73.4 °F - 64.4 °F 73% 30.09 in 10.0 mi WNW 4.6 mph - N/A   Partly Cloudy
8:55 AM 73.4 °F - 64.4 °F 73% 30.09 in 10.0 mi West 6.9 mph - N/A   Scattered Clouds
9:15 AM 73.4 °F - 66.2 °F 78% 30.10 in 10.0 mi West 5.8 mph - N/A   Mostly Cloudy
9:35 AM 75.2 °F - 66.2 °F 73% 30.10 in 10.0 mi WSW 8.1 mph - N/A   Scattered Clouds
9:55 AM 78.8 °F - 66.2 °F 65% 30.09 in 10.0 mi WSW 10.4 mph - N/A   Clear
10:15 AM 78.8 °F - 66.2 °F 65% 30.09 in 10.0 mi West 10.4 mph - N/A   Clear
10:35 AM 78.8 °F - 66.2 °F 65% 30.10 in 10.0 mi West 9.2 mph - N/A   Mostly Cloudy
10:55 AM 80.6 °F 83.2 °F 68.0 °F 65% 30.09 in 10.0 mi WNW 10.4 mph - N/A   Scattered Clouds
11:15 AM 80.6 °F 83.2 °F 68.0 °F 65% 30.09 in 10.0 mi NW 9.2 mph - N/A   Clear
11:35 AM 80.6 °F 83.2 °F 68.0 °F 65% 30.09 in 10.0 mi WNW 9.2 mph - N/A   Clear
11:55 AM 78.8 °F - 68.0 °F 69% 30.09 in 10.0 mi West 8.1 mph - N/A   Partly Cloudy
12:15 PM 78.8 °F - 68.0 °F 69% 30.10 in 10.0 mi NW 6.9 mph - N/A   Mostly Cloudy
12:35 PM 78.8 °F - 68.0 °F 69% 30.10 in 10.0 mi WNW 5.8 mph - N/A   Mostly Cloudy
12:55 PM 78.8 °F - 68.0 °F 69% 30.10 in 10.0 mi WNW 9.2 mph - N/A   Mostly Cloudy
1:15 PM 75.2 °F - 68.0 °F 78% 30.12 in 9.0 mi NW 10.4 mph - 0.02 in   Mostly Cloudy
1:35 PM 73.4 °F - 68.0 °F 83% 30.12 in 10.0 mi NNW 8.1 mph - 0.03 in   Mostly Cloudy
1:55 PM 73.4 °F - 69.8 °F 88% 30.12 in 9.0 mi NW 9.2 mph - 0.03 in   Overcast
2:15 PM 73.4 °F - 69.8 °F 88% 30.12 in 9.0 mi NNW 15.0 mph 20.7 mph N/A   Mostly Cloudy
2:35 PM 71.6 °F - 66.2 °F 83% 30.11 in 10.0 mi NNW 12.7 mph - 0.01 in   Mostly Cloudy
2:55 PM 71.6 °F - 66.2 °F 83% 30.10 in 10.0 mi North 9.2 mph - 0.02 in   Mostly Cloudy
3:15 PM 71.6 °F - 66.2 °F 83% 30.10 in 10.0 mi NNW 10.4 mph - N/A   Partly Cloudy
3:35 PM 71.6 °F - 66.2 °F 83% 30.11 in 10.0 mi North 10.4 mph - N/A   Mostly Cloudy
3:55 PM 71.6 °F - 66.2 °F 83% 30.11 in 10.0 mi North 8.1 mph - N/A   Overcast
4:15 PM 71.6 °F - 66.2 °F 83% 30.10 in 10.0 mi NNW 5.8 mph - N/A   Scattered Clouds
4:35 PM 71.6 °F - 66.2 °F 83% 30.08 in 10.0 mi NNE 5.8 mph - N/A   Partly Cloudy
4:55 PM 73.4 °F - 66.2 °F 78% 30.08 in 10.0 mi North 3.5 mph - N/A   Partly Cloudy
5:15 PM 71.6 °F - 66.2 °F 83% 30.06 in 10.0 mi ESE 5.8 mph - N/A   Partly Cloudy
5:35 PM 71.6 °F - 66.2 °F 83% 30.05 in 10.0 mi SSE 4.6 mph - N/A   Clear
5:55 PM 71.6 °F - 66.2 °F 83% 30.03 in 10.0 mi South 5.8 mph - N/A   Clear
6:15 PM 71.6 °F - 66.2 °F 83% 30.03 in 10.0 mi South 5.8 mph - N/A   Clear
6:35 PM 71.6 °F - 66.2 °F 83% 30.03 in 10.0 mi Calm Calm - N/A   Clear
6:55 PM 71.6 °F - 66.2 °F 83% 30.03 in 10.0 mi Calm Calm - N/A   Clear
7:15 PM 71.6 °F - 66.2 °F 83% 30.04 in 10.0 mi WNW 3.5 mph - N/A   Clear
7:35 PM 69.8 °F - 64.4 °F 83% 30.04 in 10.0 mi Calm Calm - N/A   Clear
7:55 PM 68.0 °F - 64.4 °F 88% 30.04 in 9.0 mi East 3.5 mph - N/A   Clear
8:15 PM 68.0 °F - 64.4 °F 88% 30.04 in 10.0 mi ENE 3.5 mph - N/A   Partly Cloudy
8:35 PM 68.0 °F - 64.4 °F 88% 30.06 in 10.0 mi NW 4.6 mph - N/A   Partly Cloudy
8:55 PM 68.0 °F - 64.4 °F 88% 30.08 in 10.0 mi NNW 6.9 mph - N/A   Mostly Cloudy
9:15 PM 69.8 °F - 64.4 °F 83% 30.09 in 10.0 mi NNW 6.9 mph - N/A   Overcast
9:35 PM 69.8 °F - 64.4 °F 83% 30.09 in 10.0 mi NNW 9.2 mph - N/A   Mostly Cloudy
9:55 PM 68.0 °F - 64.4 °F 88% 30.09 in 10.0 mi NNW 6.9 mph - N/A   Clear
10:15 PM 68.0 °F - 64.4 °F 88% 30.09 in 10.0 mi NNW 4.6 mph - N/A   Clear
10:35 PM 66.2 °F - 64.4 °F 94% 30.09 in 7.0 mi NW 4.6 mph - N/A   Clear
10:55 PM 66.2 °F - 62.6 °F 88% 30.09 in 8.0 mi WNW 5.8 mph - N/A   Clear
11:15 PM 66.2 °F - 64.4 °F 94% 30.09 in 8.0 mi WNW 5.8 mph - N/A   Mostly Cloudy
11:35 PM 66.2 °F - 64.4 °F 94% 30.09 in 9.0 mi WNW 4.6 mph - N/A   Overcast
11:55 PM 66.2 °F - 64.4 °F 94% 30.09 in 10.0 mi WNW 3.5 mph - N/A   Scattered Clouds